Tracking 19212 objects as of 16-Jul-2018
HD Live streaming from Space Station
objects crossing your sky now

COSMOS 568

Track COSMOS 568 now!
10-day predictions
COSMOS 568 is classified as:


NORAD ID: 6679
Int'l Code: 1973-037E
Perigee: 1,382.2 km
Apogee: 1,487.1 km
Inclination: 74.0 °
Period: 114.4 minutes
Semi major axis: 7805 km
RCS: 0.71 m2 (medium)
Launch date: June 8, 1973
Source: Commonwealth of Independent States (former USSR) (CIS)
Launch site: PLESETSK MISSILE AND SPACE COMPLEX (PKMTR)
aabbcc
Your satellite tracking list
Your tracking list is empty




NASA's NSSDC Master Catalog

Two Line Element Set (TLE):
1 06679U 73037E   18196.95545951 -.00000021  00000-0 -29367-4 0  9992
2 06679  74.0154 195.1418 0067205 159.5963 227.3182 12.58902395 72893
Source of the keplerian elements: AFSPC